Showing default

COSMOS 2443 (GLONASS), 33379

Orbit data source: Space-Track

COSMOS 2443 (GLONASS), 33379 is a Commonwealth of Independent States-origin payload satellite in MEO that was launched on Thu, 25 Sep 2008 UTC via a PROTON-M/DM-2 launch vehicle from the Tyuratam Missile And Space Complex (TTMTR). Payload-class satellites include a variety of spacecraft equipped with specific instruments for various scientific and technological missions. These include communications satellites like Starlink; space stations such as the ISS; scientific satellites like the Hubble; Earth observation satellites from companies like Planet Labs, Umbra, and HawkEye 360; GPS; miniature CubeSats for education and research; and military/defense satellites.

Loading next visibility...
Identifier
33379, 2008-046B
Orbit
MEO
Country
Flag of CISCIS
Related business
Manufacturer
Resehetnev ISS
Mission
Non-operational Defense Navigation
Bus & Motor
URAGAN, Unknown motor
Mass
1,450 kg wet, ~1,200 kg dry
Launch date (UTC)
2008-09-25 (18 years ago)
Launch vehicle
PROTON-M/DM-2
Launch site
Tyuratam Missile And Space Complex (TTMTR)
Object type
Payload
Rocket body
Debris
Shape & HBR
Cyl + 1 Ant + 2 Pan, 3.9 m
Radar Cross Section
8.467 m², Large (>1 m²)

Expand to show TLE details & history
Last TLE update: 3 days ago

TLE from 3 days ago
0 COSMOS 2443 (GLONASS)
1 33379U 08046B   26171.00562042 -.00000060  00000-0  00000-0 0  9996
2 33379  65.4735 314.8850 0016505 176.2226 235.5371  2.13099020138014
Epoch: 2026-06-20T00:08Z
TLE epoch observation values (Epoch: 2026-06-20T00:08:05.604Z)
Latitude
45.5461°
Longitude
72.28252°
Altitude
19,159.581 km
Speed
3.95 km/s
True Right ascension
22h 50m 07s
True Declination
45° 29' 53"
Sunlit
Object was in daylight at epoch
Visualization orbit readout
Latitude
Unknown
Longitude
Unknown
Altitude
Unknown
Speed
Unknown
Apparent Right ascension
Unknown
Apparent Declination
Unknown
Sunlit
N/A
Visualization observer readout
Local Sidereal Time
23:27:16
Azimuth
Unknown
Elevation
Unknown
Doppler factor
Unknown
Orbital elements
Apogee altitude
19,171.825 km
Perigee altitude
19,087.623 km
Semi-major axis
25,507.861 km
Eccentricity
0.00165
Inclination
65.4735°
RAAN
314.885°
Arg. of periapsis
176.2226°
True anomaly
235.38134°
Mean anomaly
235.5371°
Eccentric anomaly
235.4592°
Mean motion
0.53276 °/min
Orbital period
675.73 mins
BSTAR
0
Loading maneuver chart data...
Computing Atmospheric mass density...
Loading historical data...
Loading historical data...
Loading historical data...
Loading historical data...
Loading historical data...
Loading historical data...
Loading historical data...

Documentation

Showing up to 5 results
|